[[{"header":{"parameterUnit":"m.s-1","parameterCategory":2,"la1":30.2991,"la2":30.254,"lo1":-89.0895,"lo2":-89.0444,"dy":0.0017,"dx":0.0017,"nx":28,"ny":28,"refTime":"2024-07-14T03:00:00:Z","depth":"0","parameterNumber":2,"parameterNumberName":"U-component_of_CURRENTS"},"data":[0,0,0,0,0,0,0,0,0,0,0,0,0,0,0,0,0,0,0,0,0,0,0,0,0,0,0,0,0,0,0,0,0,0,0,0,0,0,0,0,0,0,0,0,0,0,0,0,0,0,0,0,0,0,0,0,0,0,0.3452,0.3452,0,0.3447,0.3447,0.3446,0.3423,0.3423,0.3422,0.3422,0.3461,0.3462,0.3463,0,0,0,0,0,0,0,0,0,0,0,0,0,0.3504,0.3502,0.3452,0.3452,0.3452,0.3447,0.3447,0.3446,0.3423,0.3423,0.3422,0.3422,0.346,0.3462,0.3464,0,0,0,0,0,0,0,0,0,0,0,0,0,0.3487,0.3502,0.3452,0.344,0.3439,0.3447,0.3447,0.3446,0.3423,0.3423,0.3422,0.3421,0.346,0.3462,0.3464,0.3491,0,0,0.347,0.3471,0,0,0,0,0,0,0,0,0.3488,0.3485,0.3442,0.3441,0.344,0.3436,0.3479,0.3464,0.3424,0.3428,0.3422,0.3421,0.3458,0.346,0.3458,0.3493,0.3494,0.3471,0.3472,0.3473,0.3474,0,0,0,0,0,0,0,0.3489,0.3485,0.3449,0.3442,0.3441,0.3457,0.3453,0.3476,0.3447,0.3428,0.3426,0.3428,0.3457,0.3456,0.3459,0.3495,0.3471,0.3473,0.3474,0.3475,0.3624,0.3626,0,0,0,0,0,0,0.3489,0.3486,0.3449,0.3449,0.3464,0.3456,0.3452,0.3437,0.3446,0.3446,0.3428,0.3427,0.3453,0.3457,0.3461,0.354,0.3473,0.3475,0.3476,0.3621,0.3624,0.3627,0,0,0,0,0,0,0.349,0.3485,0.3449,0.3469,0.3466,0.3456,0.3439,0.3437,0.3443,0.3446,0.3447,0.3436,0.3452,0.3458,0.3501,0.3539,0.3476,0.3478,0.3618,0.3622,0.3626,0.3668,0,0,0,0,0,0,0.3491,0.3485,0.3481,0.3469,0.3465,0.3458,0.344,0.3438,0.3444,0.3442,0.3453,0.3455,0.3452,0.3498,0.3503,0.3541,0.348,0.3615,0.362,0.3625,0.3664,0.3673,0.3682,0,0,0,0,0,0.3492,0.3488,0.348,0.3477,0.3456,0.3459,0.3459,0.3449,0.3446,0.3451,0.347,0.3455,0.3533,0.3501,0.3507,0.3547,0.3612,0.3618,0.3624,0.366,0.3672,0.3681,0,0,0,0,0,0,0.3516,0.3485,0.3476,0.3464,0.3465,0.3455,0.3459,0.3459,0.3476,0.3479,0.3482,0.3487,0.3545,0.3546,0.351,0.3609,0.3574,0.3581,0.3599,0.361,0.3619,0.3597,0.3481,0,0,0,0,0,0.3518,0.3501,0.3486,0.3481,0.3477,0.3473,0.3475,0.3472,0.3483,0.3488,0.3497,0.3526,0.3574,0.3589,0.3621,0.3667,0.3699,0.3702,0.3711,0.3718,0.3708,0.3817,0.3835,0.3647,0.3647,0.3647,0,0,0.3528,0.351,0.3501,0.3485,0.348,0.3478,0.3472,0.3478,0.3489,0.3493,0.3517,0.3558,0.3597,0.3653,0.3679,0.3655,0.3793,0.3726,0.3731,0.3717,0.3825,0.3843,0.3859,0.3651,0.365,0.365,0,0,0.3533,0.352,0.3502,0.35,0.3495,0.3495,0.35,0.3498,0.3509,0.3541,0.3567,0.363,0.3668,0.3715,0.3744,0.3826,0.3842,0.3843,0.3861,0.3968,0.3984,0.3998,0.4071,0.4092,0.384,0.384,0.384,0,0.3548,0.3512,0.3506,0.3492,0.3488,0.3502,0.3493,0.3516,0.3535,0.3561,0.3552,0.3669,0.3699,0.3799,0.3826,0.3844,0.3896,0.3811,0.3979,0.3993,0.4007,0.4079,0.4101,0.3843,0.3843,0.3843,0.3842,0,0.3535,0.3509,0.3504,0.3482,0.3489,0.3486,0.3507,0.3531,0.355,0.3579,0.3672,0.373,0.3799,0.3835,0.3848,0.3974,0.3978,0.3983,0.3944,0.4028,0.4099,0.4121,0.3847,0.3846,0.3845,0.3845,0,0,0.3546,0.3498,0.3495,0.3468,0.3476,0.3475,0.3515,0.355,0.3579,0.3641,0.3689,0.3807,0.3852,0.389,0.3943,0.4027,0.4176,0.404,0.4045,0.4099,0.4402,0.4451,0.4479,0.4217,0.4221,0.4224,0.4414,0,0.3529,0.3479,0.3476,0.345,0.342,0.3453,0.3483,0.3534,0.3584,0.3641,0.3751,0.3823,0.3874,0.3913,0.402,0.4138,0.4234,0.4122,0.4323,0.4328,0.4351,0.4507,0.4464,0.4635,0.4436,0.4439,0.4442,0,0.3505,0.3468,0.3426,0.3397,0.3392,0.3399,0.3441,0.3473,0.3582,0.3628,0.3745,0.3821,0.3982,0.3987,0.426,0.4191,0.43,0.438,0.439,0.443,0.4419,0.452,0.4682,0.4465,0.4476,0.4473,0.4471,0,0.3477,0.3432,0.3389,0.338,0.3368,0.3375,0.3387,0.3472,0.3505,0.3628,0.3673,0.387,0.3964,0.4153,0.4346,0.4318,0.4614,0.4597,0.4743,0.4745,0.4744,0.474,0.4706,0.478,0.478,0.4779,0.4779,0,0.3442,0.3405,0.3366,0.3341,0.3311,0.3331,0.3342,0.3388,0.347,0.3533,0.3671,0.3765,0.4012,0.4204,0.4369,0.4649,0.4659,0.4781,0.4822,0.4759,0.4755,0.4591,0.4469,0.4786,0.4785,0.4783,0.4782,0,0.3406,0.3381,0.3322,0.3294,0.3286,0.3268,0.3281,0.3303,0.3393,0.3476,0.3518,0.3726,0.401,0.4247,0.4551,0.4687,0.4801,0.4999,0.4894,0.4921,0.4861,0.4746,0.4626,0.4512,0.5216,0.5219,0.5221,0,0.336,0.3329,0.3279,0.3242,0.3222,0.3201,0.3197,0.3259,0.3296,0.3465,0.3511,0.3775,0.398,0.4443,0.4741,0.5073,0.4878,0.5194,0.5144,0.4884,0.4785,0.4518,0.4407,0.5157,0.5158,0.5159,0.516,0,0.3278,0.3278,0.3242,0.317,0.3139,0.3114,0.3118,0.313,0.3238,0.3337,0.3501,0.3664,0.4124,0.4433,0.4856,0.51,0.493,0.5233,0.5005,0.4785,0.4452,0.4351,0.496,0.5172,0.5171,0.517,0.5169,0.5169,0.3215,0.3183,0.3142,0.3072,0.3039,0.3012,0.2984,0.3046,0.311,0.324,0.344,0.3681,0.41,0.4712,0.4905,0.5146,0.501,0.5103,0.5003,0.4766,0.4588,0.5213,0.5442,0.5442,0.5443,0.5443,0.5443,0,0.3101,0.3083,0.303,0.2949,0.2886,0.2909,0.2914,0.2915,0.2977,0.3165,0.3334,0.377,0.4122,0.4504,0.4894,0.4857,0.4716,0.4774,0.4352,0.4276,0.4906,0.4834,0.4889,0.4889,0.4889,0.489,0.489,0.489,0.303,0.2961,0.2942,0.2801,0.2755,0.2693,0.2685,0.2736,0.2847,0.3034,0.3246,0.3466,0.387,0.4232,0.4393,0.4446,0.4075,0.3995,0.3846,0.4243,0.4262,0.4279,0.4179,0.4096,0.4095,0.3117,0.3109,0.3103]},{"header":{"parameterUnit":"m.s-1","parameterCategory":2,"la1":30.2991,"la2":30.254,"lo1":-89.0895,"lo2":-89.0444,"dy":0.0017,"dx":0.0017,"nx":28,"ny":28,"refTime":"2024-07-14T03:00:00:Z","depth":"0","parameterNumber":3,"parameterNumberName":"V-component_of_CURRENTS"},"data":[0,0,0,0,0,0,0,0,0,0,0,0,0,0,0,0,0,0,0,0,0,0,0,0,0,0,0,0,0,0,0,0,0,0,0,0,0,0,0,0,0,0,0,0,0,0,0,0,0,0,0,0,0,0,0,0,0,0,-0.0103,-0.0103,0,-0.0101,-0.0101,-0.0101,-0.0143,-0.0144,-0.0145,-0.0146,-0.0269,-0.0271,-0.0274,0,0,0,0,0,0,0,0,0,0,0,0,0,-0.0163,-0.0161,-0.0103,-0.0103,-0.0102,-0.0101,-0.0101,-0.0101,-0.0143,-0.0144,-0.0145,-0.0146,-0.0268,-0.0271,-0.0274,0,0,0,0,0,0,0,0,0,0,0,0,0,-0.0148,-0.0161,-0.0103,-0.0121,-0.0123,-0.0101,-0.0101,-0.0101,-0.0142,-0.0144,-0.0145,-0.0147,-0.0267,-0.0271,-0.0274,-0.0269,0,0,-0.0286,-0.0287,0,0,0,0,0,0,0,0,-0.0149,-0.0146,-0.0119,-0.012,-0.0121,-0.0121,-0.0167,-0.0163,-0.0142,-0.0137,-0.0146,-0.0147,-0.0229,-0.0236,-0.0234,-0.0275,-0.0281,-0.0286,-0.0288,-0.029,-0.0291,0,0,0,0,0,0,0,-0.015,-0.0147,-0.0104,-0.0118,-0.012,-0.0136,-0.0136,-0.0166,-0.018,-0.0138,-0.014,-0.0136,-0.0231,-0.023,-0.0237,-0.0282,-0.0286,-0.0289,-0.0291,-0.0293,-0.0308,-0.0307,0,0,0,0,0,0,-0.0143,-0.0147,-0.0104,-0.0104,-0.0136,-0.0134,-0.0133,-0.0122,-0.0177,-0.0184,-0.0135,-0.0138,-0.0223,-0.0233,-0.0242,-0.0215,-0.029,-0.0293,-0.0295,-0.031,-0.0308,-0.0306,0,0,0,0,0,0,-0.0144,-0.0138,-0.0104,-0.0125,-0.0121,-0.0131,-0.0118,-0.0121,-0.0124,-0.0172,-0.0184,-0.0135,-0.0225,-0.0237,-0.0253,-0.0221,-0.0295,-0.0298,-0.0312,-0.0309,-0.0307,-0.0177,0,0,0,0,0,0,-0.0145,-0.0139,-0.013,-0.0124,-0.012,-0.0079,-0.0116,-0.012,-0.0118,-0.0122,-0.0176,-0.0188,-0.0227,-0.0247,-0.0256,-0.0228,-0.0301,-0.0314,-0.0311,-0.0308,-0.0183,-0.017,-0.0159,0,0,0,0,0,-0.0147,-0.013,-0.0129,-0.0124,-0.0106,-0.0077,-0.0076,-0.009,-0.0116,-0.0102,-0.0136,-0.0187,-0.0233,-0.0248,-0.026,-0.0231,-0.0316,-0.0312,-0.0308,-0.0189,-0.0173,-0.0159,0,0,0,0,0,0,-0.016,-0.0132,-0.0131,-0.0108,-0.0087,-0.0083,-0.0073,-0.0084,-0.0098,-0.011,-0.0166,-0.0179,-0.0183,-0.0222,-0.0238,-0.0225,-0.0282,-0.028,-0.0187,-0.0173,-0.0161,-0.0155,-0.0304,0,0,0,0,0,-0.0153,-0.013,-0.0106,-0.0087,-0.0073,-0.0072,-0.0065,-0.0069,-0.0078,-0.0086,-0.0121,-0.0156,-0.0172,-0.0185,-0.0213,-0.0206,-0.0252,-0.0194,-0.0182,-0.0171,-0.0173,-0.0199,-0.019,-0.0293,-0.0293,-0.0293,0,0,-0.0156,-0.0135,-0.0126,-0.0088,-0.0076,-0.0037,-0.0072,-0.005,-0.0023,-0.0098,-0.0086,-0.0121,-0.0162,-0.015,-0.0155,-0.018,-0.0163,-0.0166,-0.0156,-0.0165,-0.0194,-0.0184,-0.0175,-0.029,-0.0291,-0.0291,0,0,-0.0141,-0.0124,-0.0096,-0.0063,-0.0029,-0.0018,-0.0008,0.0006,0.0008,0.0025,-0.002,-0.0029,-0.0062,-0.0072,-0.0084,-0.0021,-0.0101,-0.0034,0.0037,0.0013,0.0021,0.0027,-0.0009,-0.0007,-0.0022,-0.0022,-0.0022,0,-0.0149,-0.01,-0.0084,-0.0037,-0.0005,-0.0003,0.0043,0.0058,0.0062,0.0071,0.0042,0.0016,-0.0019,0.0002,0.0029,0.0007,-0.0031,-0.0014,0.0029,0.0034,0.0038,-0.0001,-0.0,-0.0015,-0.0016,-0.0017,-0.0018,0,-0.0105,-0.0058,-0.0034,0.0031,0.0067,0.0109,0.0144,0.0166,0.0163,0.0171,0.0183,0.0146,0.0127,0.0127,0.0097,0.0121,0.0076,0.0044,-0.0009,0.0056,0.0011,0.001,-0.0006,-0.0008,-0.001,-0.0012,0,0,-0.0147,-0.0027,-0.002,0.0037,0.0111,0.0147,0.0205,0.026,0.0295,0.029,0.0323,0.031,0.0276,0.0259,0.0221,0.021,0.0217,0.0147,0.0143,0.0112,0.015,0.0142,0.0138,0.0188,0.0188,0.0189,0.011,0,-0.0119,-0.0015,0.0036,0.0138,0.0201,0.0244,0.0302,0.0348,0.0373,0.0405,0.0379,0.0385,0.0332,0.0322,0.0307,0.0239,0.0216,0.024,0.0089,0.0085,0.0071,0.0138,0.0186,0.0122,0.0107,0.0107,0.0106,0,-0.0101,-0.0021,0.0081,0.0216,0.0244,0.0301,0.0396,0.0451,0.0501,0.0511,0.0516,0.0484,0.0476,0.0411,0.033,0.0344,0.0254,0.0195,0.019,0.0133,0.0074,0.0052,0.0118,-0.0074,0.0103,0.0103,0.0103,0,-0.0136,0.0007,0.0093,0.014,0.0282,0.0332,0.0398,0.0474,0.0533,0.0572,0.06,0.0572,0.0556,0.046,0.0352,0.0331,0.0251,0.0202,0.0106,0.0103,0.0089,0.0085,-0.0048,0.0127,0.0127,0.0127,0.0128,0,-0.0125,-0.0053,0.0088,0.0141,0.0252,0.0339,0.0442,0.05,0.0582,0.0665,0.0644,0.0688,0.0566,0.0512,0.0387,0.026,0.0272,0.0128,0.0092,0.0137,0.0139,-0.0077,-0.0205,0.0124,0.0125,0.0126,0.0126,0,-0.0167,-0.0082,0.0036,0.0191,0.0243,0.0319,0.048,0.0563,0.0624,0.0727,0.0739,0.0765,0.0716,0.059,0.0443,0.0312,0.0086,0.0122,0.0183,0.0157,-0.0115,-0.0237,-0.04,-0.0476,0.0002,0.0002,0.0001,0,-0.0167,-0.0113,0.0058,0.0142,0.022,0.0348,0.045,0.0561,0.0657,0.0789,0.0844,0.0837,0.0871,0.0672,0.0453,0.0242,0.0074,0.0109,0.008,-0.0112,-0.0276,-0.0334,-0.039,0.0107,0.0107,0.0108,0.0108,0,-0.0148,-0.0102,0.0003,0.0162,0.0286,0.0433,0.0582,0.0659,0.0801,0.0903,0.1034,0.1074,0.0912,0.0778,0.0493,0.0323,-0.0008,0.0108,-0.0101,-0.0209,-0.0271,-0.0365,0.0121,0.0111,0.0111,0.0111,0.0111,0.011,-0.0129,-0.006,0.0074,0.0223,0.0364,0.0536,0.0663,0.0824,0.0996,0.1224,0.1214,0.1381,0.1112,0.0763,0.0462,-0.0009,-0.0033,-0.0143,-0.0277,-0.0319,-0.0383,0.0108,0.0065,0.0065,0.0064,0.0064,0.0063,0,-0.0069,0.0017,0.0148,0.0342,0.0497,0.0566,0.0782,0.0934,0.116,0.1405,0.156,0.1612,0.1239,0.0813,0.0159,-0.0284,-0.0434,-0.0521,-0.0605,-0.0647,-0.0214,-0.02,-0.0287,-0.0287,-0.0287,-0.0287,-0.0287,-0.0287,-0.0015,0.0105,0.0172,0.0433,0.0569,0.0802,0.0935,0.1163,0.1383,0.1756,0.1975,0.2082,0.1742,0.048,-0.0439,-0.0676,-0.0969,-0.1029,-0.1206,-0.094,-0.0915,-0.0891,-0.0907,-0.1141,-0.1142,-0.1529,-0.1533,-0.1537]}],[{"header":{"parameterUnit":"m.s-1","parameterCategory":2,"la1":30.2991,"la2":30.254,"lo1":-89.0895,"lo2":-89.0444,"dy":0.0017,"dx":0.0017,"nx":28,"ny":28,"refTime":"2024-07-14T03:00:00:Z","depth":"2","parameterNumber":2,"parameterNumberName":"U-component_of_CURRENTS"},"data":[0,0,0,0,0,0,0,0,0,0,0,0,0,0,0,0,0,0,0,0,0,0,0,0,0,0,0,0,0,0,0,0,0,0,0,0,0,0,0,0,0,0,0,0,0,0,0,0,0,0,0,0,0,0,0,0,0,0,0.1535,0.1537,0,0.1664,0.1665,0.1666,0.1723,0.1723,0.1723,0.1723,0.1804,0.1806,0.1808,0,0,0,0,0,0,0,0,0,0,0,0,0,0.1348,0.135,0.1535,0.1537,0.1539,0.1664,0.1665,0.1667,0.1723,0.1723,0.1723,0.1723,0.1804,0.1806,0.1809,0,0,0,0,0,0,0,0,0,0,0,0,0,0.1445,0.1351,0.1535,0.1584,0.159,0.1664,0.1665,0.1667,0.1723,0.1723,0.1723,0.1723,0.1803,0.1806,0.1809,0.1825,0,0,0.1818,0.182,0,0,0,0,0,0,0,0,0.1439,0.1451,0.1575,0.1581,0.1588,0.168,0.1629,0.1719,0.1723,0.1669,0.1723,0.1723,0.176,0.1767,0.1787,0.1829,0.1832,0.1819,0.1821,0.1822,0.1823,0,0,0,0,0,0,0,0.1432,0.1446,0.1583,0.1577,0.1585,0.1604,0.1617,0.1647,0.1709,0.1674,0.1679,0.1698,0.1763,0.1784,0.1789,0.1834,0.1819,0.1821,0.1823,0.1825,0.1992,0.1995,0,0,0,0,0,0,0.1423,0.144,0.1579,0.1587,0.1516,0.1607,0.1622,0.1648,0.171,0.1721,0.1698,0.1701,0.1779,0.1786,0.1792,0.1904,0.1822,0.1825,0.1827,0.199,0.1993,0.1996,0,0,0,0,0,0,0.1418,0.1434,0.1574,0.1518,0.1538,0.1611,0.1639,0.165,0.1697,0.173,0.1739,0.1735,0.1779,0.1788,0.185,0.1904,0.1826,0.1829,0.1987,0.1991,0.1994,0.207,0,0,0,0,0,0,0.1412,0.1432,0.1457,0.1518,0.1541,0.1633,0.1639,0.1653,0.1708,0.1713,0.1764,0.1771,0.178,0.1846,0.1853,0.1907,0.1832,0.1983,0.1989,0.1993,0.2064,0.2076,0.2086,0,0,0,0,0,0.1405,0.1437,0.1457,0.1475,0.157,0.1635,0.1648,0.1697,0.171,0.1737,0.1778,0.177,0.1882,0.185,0.1858,0.1914,0.1981,0.1987,0.1993,0.2059,0.2074,0.2086,0,0,0,0,0,0,0.1371,0.1448,0.1471,0.1526,0.1583,0.1646,0.1684,0.1712,0.1767,0.1776,0.1799,0.1809,0.1891,0.189,0.1854,0.1978,0.1932,0.194,0.198,0.1994,0.2004,0.2003,0.1834,0,0,0,0,0,0.1374,0.1419,0.1489,0.1535,0.1567,0.1628,0.1665,0.1697,0.175,0.1776,0.1815,0.1861,0.1919,0.1944,0.1988,0.2046,0.2074,0.2089,0.21,0.2109,0.2116,0.2212,0.2232,0.2015,0.2015,0.2015,0,0,0.1371,0.1423,0.1447,0.1531,0.1581,0.1636,0.1651,0.1714,0.1764,0.1774,0.1858,0.1904,0.1945,0.2024,0.2059,0.2029,0.219,0.2117,0.2124,0.2125,0.222,0.2241,0.226,0.2019,0.2018,0.2018,0,0,0.1386,0.1439,0.1481,0.1533,0.1615,0.1655,0.1678,0.1756,0.1798,0.1876,0.1911,0.1987,0.2058,0.2109,0.2139,0.2234,0.2251,0.2254,0.2301,0.2396,0.2414,0.2431,0.2507,0.2529,0.2251,0.2251,0.2251,0,0.1383,0.1448,0.1502,0.1559,0.161,0.1666,0.1722,0.1774,0.1862,0.1918,0.1911,0.2075,0.2101,0.2216,0.2252,0.226,0.2312,0.2246,0.241,0.2427,0.2442,0.2516,0.254,0.2256,0.2255,0.2255,0.2254,0,0.143,0.1487,0.152,0.1611,0.1669,0.1727,0.1803,0.1869,0.1925,0.1988,0.212,0.2169,0.2271,0.2294,0.23,0.2436,0.2439,0.2419,0.2373,0.2469,0.2541,0.2564,0.2262,0.226,0.2259,0.2258,0,0,0.1414,0.1529,0.1543,0.1595,0.1703,0.1756,0.1848,0.196,0.2045,0.2127,0.2246,0.2344,0.2392,0.243,0.2461,0.2525,0.2678,0.2521,0.2524,0.2591,0.2895,0.2714,0.2722,0.2698,0.2702,0.2706,0.2905,0,0.144,0.1535,0.1593,0.1693,0.1754,0.1838,0.1925,0.2032,0.2127,0.2253,0.2334,0.2452,0.2438,0.2503,0.2575,0.2664,0.2743,0.2626,0.2797,0.2802,0.2624,0.2743,0.2448,0.2584,0.2928,0.2932,0.2935,0,0.1473,0.1536,0.1628,0.1753,0.179,0.1859,0.2024,0.2107,0.2282,0.2365,0.2497,0.2567,0.2709,0.266,0.2864,0.2799,0.2861,0.2901,0.291,0.2726,0.2663,0.2543,0.2614,0.2974,0.2971,0.2968,0.2965,0,0.1446,0.1565,0.1638,0.1682,0.1827,0.1899,0.1985,0.2153,0.2245,0.2448,0.2532,0.2713,0.2808,0.2923,0.301,0.297,0.3206,0.3159,0.3055,0.3044,0.2813,0.2772,0.3302,0.3302,0.3302,0.3301,0.3301,0,0.1461,0.1523,0.1634,0.1681,0.1783,0.1896,0.2028,0.2147,0.2322,0.2449,0.2587,0.2709,0.288,0.3018,0.3084,0.3146,0.3283,0.309,0.3091,0.2829,0.2789,0.3129,0.3106,0.3309,0.3307,0.3306,0.3304,0,0.1441,0.1505,0.1593,0.1732,0.1774,0.1856,0.202,0.2116,0.2288,0.2454,0.2521,0.2757,0.2945,0.3071,0.3276,0.3218,0.3304,0.3287,0.2953,0.2907,0.3064,0.3044,0.3205,0.3201,0.3197,0.3193,0.3191,0,0.1453,0.1491,0.1606,0.1641,0.1708,0.1827,0.1903,0.2087,0.219,0.2473,0.2546,0.2782,0.2912,0.3115,0.3064,0.3126,0.329,0.29,0.2733,0.3073,0.306,0.3045,0.303,0.2491,0.2482,0.2476,0.247,0,0.1468,0.1496,0.1553,0.1616,0.1687,0.177,0.1897,0.1973,0.2201,0.2339,0.2572,0.2697,0.2811,0.275,0.2769,0.2752,0.2853,0.2756,0.3269,0.2517,0.2403,0.2388,0.2397,0.241,0.2416,0.2421,0.2424,0.2426,0.1469,0.1492,0.154,0.16,0.1653,0.1722,0.1789,0.1921,0.2073,0.2267,0.2456,0.2524,0.2487,0.2335,0.2325,0.2289,0.243,0.2362,0.2383,0.2412,0.2249,0.213,0.2057,0.2061,0.2064,0.2067,0.207,0,0.1478,0.1489,0.1525,0.1582,0.1605,0.1668,0.1785,0.1836,0.1977,0.2091,0.2243,0.1966,0.1915,0.1971,0.1758,0.1705,0.1682,0.1727,0.1713,0.1768,0.1818,0.1627,0.1271,0.127,0.1269,0.1268,0,0,0.1485,0.1495,0.1502,0.1524,0.1563,0.1616,0.1678,0.1744,0.18,0.1758,0.1726,0.1822,0.1824,0.1508,0.1449,0.1385,0.1584,0.132,0.1936,0.1971,0.2021,0.2128,0.1886,0,0,0,0,0]},{"header":{"parameterUnit":"m.s-1","parameterCategory":2,"la1":30.2991,"la2":30.254,"lo1":-89.0895,"lo2":-89.0444,"dy":0.0017,"dx":0.0017,"nx":28,"ny":28,"refTime":"2024-07-14T03:00:00:Z","depth":"2","parameterNumber":3,"parameterNumberName":"V-component_of_CURRENTS"},"data":[0,0,0,0,0,0,0,0,0,0,0,0,0,0,0,0,0,0,0,0,0,0,0,0,0,0,0,0,0,0,0,0,0,0,0,0,0,0,0,0,0,0,0,0,0,0,0,0,0,0,0,0,0,0,0,0,0,0,0.0152,0.0151,0,0.0078,0.0077,0.0076,0.0013,0.0013,0.0012,0.0011,-0.016,-0.0164,-0.0168,0,0,0,0,0,0,0,0,0,0,0,0,0,0.0217,0.0216,0.0152,0.0151,0.015,0.0078,0.0077,0.0076,0.0014,0.0013,0.0012,0.0011,-0.0159,-0.0163,-0.0168,0,0,0,0,0,0,0,0,0,0,0,0,0,0.0171,0.0216,0.0152,0.0109,0.0105,0.0078,0.0077,0.0076,0.0014,0.0013,0.0011,0.001,-0.0157,-0.0163,-0.0169,-0.018,0,0,-0.0186,-0.0189,0,0,0,0,0,0,0,0,0.0174,0.0169,0.0117,0.0112,0.0107,0.0053,0.0037,-0.0015,0.0014,0.0049,0.0011,0.001,-0.0098,-0.0108,-0.0117,-0.0188,-0.0195,-0.0187,-0.019,-0.0192,-0.0194,0,0,0,0,0,0,0,0.0177,0.0172,0.0124,0.0116,0.011,0.0086,0.0078,0.0027,-0.0018,0.0046,0.0041,0.0032,-0.0101,-0.0111,-0.0122,-0.0198,-0.0186,-0.0191,-0.0195,-0.0197,-0.0331,-0.0331,0,0,0,0,0,0,0.0187,0.0175,0.0126,0.0121,0.0137,0.0086,0.0077,0.0072,-0.0015,-0.0029,0.0033,0.0029,-0.0101,-0.0115,-0.0128,-0.0159,-0.0192,-0.0198,-0.0201,-0.0331,-0.0331,-0.0331,0,0,0,0,0,0,0.0189,0.0183,0.0129,0.0145,0.0137,0.0086,0.008,0.0071,0.0057,-0.0024,-0.004,0.0027,-0.0102,-0.012,-0.018,-0.0166,-0.02,-0.0206,-0.0331,-0.0331,-0.0331,-0.0213,0,0,0,0,0,0,0.0191,0.0185,0.0187,0.0146,0.0136,0.0125,0.0081,0.0071,0.0052,0.0047,-0.0035,-0.0051,-0.0104,-0.0171,-0.0186,-0.0174,-0.021,-0.0331,-0.0331,-0.0331,-0.0217,-0.0209,-0.0203,0,0,0,0,0,0.0194,0.0211,0.0188,0.0182,0.014,0.0126,0.012,0.0079,0.0054,0.006,-0.0008,-0.0049,-0.0183,-0.0175,-0.0193,-0.0183,-0.0331,-0.0331,-0.0331,-0.022,-0.0211,-0.0203,0,0,0,0,0,0,0.0252,0.0205,0.0179,0.0183,0.0158,0.0115,0.0117,0.0086,0.0041,0.0027,-0.0052,-0.0072,-0.012,-0.0172,-0.0161,-0.0225,-0.0263,-0.0267,-0.0173,-0.0165,-0.0158,-0.0106,-0.0215,0,0,0,0,0,0.0263,0.0255,0.0213,0.0217,0.0207,0.0162,0.015,0.0122,0.0075,0.0055,-0.0002,-0.0072,-0.0132,-0.0164,-0.0222,-0.0254,-0.0294,-0.0262,-0.0255,-0.0248,-0.0219,-0.0289,-0.0284,-0.0332,-0.0332,-0.0332,0,0,0.0288,0.026,0.0257,0.0227,0.0204,0.0208,0.0153,0.0142,0.0142,0.0041,0.0022,-0.0049,-0.0137,-0.0174,-0.02,-0.0216,-0.0253,-0.0248,-0.0242,-0.0216,-0.0288,-0.0283,-0.0279,-0.0333,-0.0332,-0.0332,0,0,0.0342,0.0309,0.0324,0.0307,0.0273,0.0245,0.0245,0.0203,0.018,0.0148,0.0072,0.0012,-0.007,-0.0125,-0.0167,-0.0158,-0.0215,-0.0181,-0.0099,-0.0167,-0.0163,-0.016,-0.0184,-0.0184,-0.0175,-0.0175,-0.0175,0,0.0376,0.0383,0.033,0.0342,0.034,0.0268,0.0296,0.0264,0.0207,0.0198,0.0155,0.0038,-0.0043,-0.0087,-0.0086,-0.0138,-0.0171,-0.012,-0.0154,-0.0152,-0.0151,-0.0177,-0.0179,-0.0169,-0.017,-0.017,-0.0171,0,0.0439,0.0444,0.0456,0.0441,0.0436,0.0445,0.0397,0.0381,0.0337,0.0305,0.0254,0.0145,0.0082,0.0038,-0.0022,-0.005,-0.0072,-0.0137,-0.0165,-0.0138,-0.0168,-0.0172,-0.0161,-0.0163,-0.0165,-0.0166,0,0,0.0518,0.0505,0.0507,0.0525,0.0489,0.0499,0.0492,0.048,0.0494,0.0412,0.0424,0.0301,0.0248,0.0197,0.0106,0.0046,0.0018,-0.0025,-0.0031,-0.0027,-0.0095,-0.0119,-0.0126,-0.0054,-0.0054,-0.0055,-0.0111,0,0.0587,0.0634,0.0606,0.0661,0.0687,0.063,0.0641,0.0614,0.0578,0.0568,0.0449,0.0416,0.0305,0.0278,0.0201,0.0063,0.0011,0.0042,-0.0139,-0.0143,-0.0152,-0.0131,-0.0155,-0.0208,-0.0115,-0.0115,-0.0116,0,0.0659,0.0682,0.0747,0.0777,0.0786,0.0807,0.0823,0.0824,0.0778,0.0751,0.0692,0.0601,0.0508,0.0401,0.0206,0.0232,0.0094,-0.002,-0.0026,-0.0088,-0.0175,-0.0228,-0.0219,-0.0123,-0.0122,-0.0122,-0.0121,0,0.0743,0.0784,0.0843,0.085,0.0867,0.0894,0.0904,0.0886,0.0904,0.0875,0.0879,0.0754,0.0693,0.0503,0.027,0.0238,0.0061,-0.0027,-0.0173,-0.0175,-0.0249,-0.0257,-0.0158,-0.0158,-0.0158,-0.0158,-0.0158,0,0.0825,0.087,0.089,0.0923,0.1003,0.0991,0.1065,0.1058,0.1064,0.1099,0.0983,0.0978,0.0712,0.0568,0.0342,0.0097,0.0109,-0.0134,-0.0193,-0.0208,-0.0211,-0.0188,-0.0191,-0.016,-0.016,-0.0159,-0.0159,0,0.0896,0.0904,0.0976,0.1021,0.1042,0.11,0.1159,0.121,0.121,0.1251,0.1246,0.1146,0.0964,0.07,0.0408,0.02,-0.0042,-0.0136,-0.0106,-0.016,-0.0246,-0.0242,-0.0299,-0.0301,-0.0302,-0.0303,-0.0304,0,0.0934,0.0979,0.1048,0.1088,0.1111,0.1188,0.124,0.1275,0.1329,0.1348,0.1374,0.1245,0.1145,0.0748,0.036,-0.0006,-0.0041,-0.0239,-0.0326,-0.0209,-0.0261,-0.0256,-0.0251,-0.0372,-0.0373,-0.0374,-0.0375,0,0.1006,0.1022,0.1068,0.1153,0.1222,0.1313,0.1393,0.1463,0.1503,0.1543,0.1581,0.1516,0.1133,0.0736,0.0255,0.0015,-0.0183,-0.0272,-0.0173,-0.0327,-0.0282,-0.0331,-0.0323,-0.0384,-0.0383,-0.0383,-0.0382,-0.0382,0.1036,0.1077,0.1125,0.1206,0.1289,0.1412,0.15,0.1597,0.1703,0.1758,0.1716,0.1543,0.1078,0.0379,0.0069,-0.0251,-0.0268,-0.0426,-0.0422,-0.0416,-0.041,-0.0369,-0.0484,-0.0483,-0.0483,-0.0483,-0.0482,0,0.1051,0.1088,0.1172,0.1268,0.1368,0.1406,0.1573,0.1675,0.1811,0.1771,0.1785,0.121,0.0797,0.0343,-0.0175,-0.0468,-0.0469,-0.0518,-0.0493,-0.0485,-0.0477,-0.0471,-0.0563,-0.0563,-0.0563,-0.0563,0,0,0.1052,0.1107,0.1153,0.1299,0.1374,0.151,0.161,0.1788,0.1798,0.1711,0.1499,0.1307,0.0697,0.0277,-0.0089,-0.0313,-0.0306,-0.0335,-0.0256,-0.0175,-0.0162,-0.0429,-0.0412,0,0,0,0,0]}],[{"header":{"parameterUnit":"m.s-1","parameterCategory":2,"la1":30.2991,"la2":30.254,"lo1":-89.0895,"lo2":-89.0444,"dy":0.0017,"dx":0.0017,"nx":28,"ny":28,"refTime":"2024-07-14T03:00:00:Z","depth":"4","parameterNumber":2,"parameterNumberName":"U-component_of_CURRENTS"},"data":[0,0,0,0,0,0,0,0,0,0,0,0,0,0,0,0,0,0,0,0,0,0,0,0,0,0,0,0,0,0,0,0,0,0,0,0,0,0,0,0,0,0,0,0,0,0,0,0,0,0,0,0,0,0,0,0,0,0,0.041,0.0411,0,0.0443,0.0443,0.0444,0.049,0.0491,0.0492,0.0492,0.0578,0.058,0.0581,0,0,0,0,0,0,0,0,0,0,0,0,0,0.0393,0.0393,0.041,0.0411,0.0411,0.0443,0.0443,0.0444,0.049,0.0491,0.0492,0.0493,0.0578,0.058,0.0582,0,0,0,0,0,0,0,0,0,0,0,0,0,0.0411,0.0393,0.041,0.0437,0.044,0.0443,0.0443,0.0444,0.049,0.0491,0.0492,0.0493,0.0577,0.0579,0.0582,0.0576,0,0,0.0589,0.059,0,0,0,0,0,0,0,0,0.041,0.0412,0.0433,0.0435,0.0438,0.0463,0.0469,0.0491,0.049,0.0472,0.0492,0.0493,0.0543,0.0548,0.0553,0.058,0.0584,0.059,0.0591,0.0592,0.0593,0,0,0,0,0,0,0,0.0409,0.0411,0.0424,0.0433,0.0436,0.0449,0.0453,0.0473,0.0503,0.0474,0.0477,0.0478,0.0545,0.055,0.0555,0.0585,0.059,0.0592,0.0593,0.0594,0.068,0.0681,0,0,0,0,0,0,0.0401,0.041,0.0423,0.0425,0.0425,0.0448,0.0453,0.0455,0.0502,0.0509,0.0477,0.048,0.0546,0.0553,0.0559,0.0638,0.0592,0.0594,0.0596,0.0679,0.068,0.0681,0,0,0,0,0,0,0.0401,0.0402,0.0422,0.0417,0.0421,0.0447,0.0449,0.0455,0.0503,0.0504,0.0513,0.0525,0.0547,0.0555,0.0611,0.0639,0.0596,0.0598,0.0679,0.068,0.0681,0.0744,0,0,0,0,0,0,0.04,0.0402,0.0421,0.0417,0.0421,0.0449,0.0448,0.0455,0.0499,0.0504,0.0547,0.0553,0.0548,0.0608,0.0614,0.0641,0.06,0.0677,0.0679,0.068,0.0741,0.0747,0.0753,0,0,0,0,0,0.0399,0.0405,0.0422,0.0424,0.0439,0.045,0.0454,0.0476,0.0501,0.0525,0.0557,0.0554,0.0621,0.0611,0.0618,0.0647,0.0677,0.0679,0.068,0.0738,0.0746,0.0752,0,0,0,0,0,0,0.0405,0.041,0.0428,0.0437,0.0459,0.0458,0.0482,0.0503,0.0546,0.0569,0.0575,0.0584,0.0636,0.0634,0.0623,0.0673,0.0644,0.0647,0.0686,0.0693,0.0699,0.07,0.0602,0,0,0,0,0,0.0416,0.0433,0.0436,0.0456,0.0465,0.0488,0.0504,0.0525,0.055,0.0573,0.0604,0.0629,0.064,0.0665,0.0676,0.0717,0.07,0.0735,0.074,0.0746,0.075,0.0737,0.0742,0.0687,0.0687,0.0687,0,0,0.0423,0.0433,0.0443,0.0461,0.0481,0.0508,0.0502,0.0541,0.0585,0.0575,0.066,0.0659,0.0655,0.0692,0.0714,0.0703,0.0755,0.0748,0.0752,0.0754,0.0739,0.0745,0.0749,0.0689,0.0688,0.0688,0,0,0.0437,0.0459,0.0475,0.0494,0.0531,0.0551,0.0574,0.0605,0.0644,0.0708,0.0702,0.0721,0.0768,0.0755,0.0753,0.08,0.0784,0.0809,0.0849,0.0837,0.0842,0.0845,0.0843,0.0846,0.0816,0.0816,0.0816,0,0.0456,0.0472,0.0485,0.0504,0.0537,0.0578,0.0614,0.0651,0.0708,0.0737,0.0751,0.0786,0.079,0.08,0.0814,0.0815,0.081,0.0825,0.0845,0.0848,0.0851,0.0848,0.085,0.0819,0.0819,0.0818,0.0818,0,0.0467,0.0499,0.0511,0.0561,0.06,0.0639,0.0687,0.0743,0.0802,0.0829,0.0878,0.0871,0.0884,0.0883,0.0869,0.0884,0.0876,0.0851,0.0828,0.086,0.0855,0.0856,0.0824,0.0822,0.0822,0.0821,0,0,0.0462,0.0512,0.0522,0.0556,0.0639,0.0663,0.0751,0.0818,0.0865,0.092,0.0964,0.0974,0.0968,0.0963,0.0939,0.0929,0.0945,0.0909,0.0907,0.091,0.0935,0.0879,0.0875,0.0929,0.0929,0.093,0.0928,0,0.0481,0.0524,0.0558,0.0633,0.0663,0.0732,0.0804,0.0875,0.0937,0.0989,0.0989,0.1023,0.1,0.1005,0.0993,0.0951,0.095,0.0949,0.0901,0.09,0.0848,0.0875,0.0931,0.0929,0.0929,0.093,0.093,0,0.0484,0.0514,0.0588,0.0664,0.0687,0.0761,0.0876,0.0939,0.1015,0.1052,0.108,0.1083,0.1086,0.1057,0.1021,0.1025,0.0995,0.096,0.0958,0.0884,0.0846,0.0886,0.0932,0.0931,0.0931,0.0931,0.0931,0,0.0464,0.0535,0.0606,0.0634,0.0731,0.0804,0.088,0.0977,0.1031,0.1104,0.1136,0.1136,0.1149,0.1105,0.1038,0.1045,0.0979,0.0976,0.0899,0.0895,0.0917,0.0913,0.0955,0.0955,0.0955,0.0955,0.0955,0,0.0459,0.0503,0.0614,0.064,0.074,0.0819,0.0927,0.0991,0.1079,0.1108,0.1174,0.1152,0.1164,0.1122,0.1057,0.0972,0.0997,0.0912,0.089,0.0946,0.0945,0.0919,0.0915,0.0955,0.0955,0.0955,0.0955,0,0.0429,0.0491,0.0555,0.0675,0.0736,0.0812,0.0963,0.1006,0.1112,0.1148,0.1176,0.12,0.1141,0.112,0.104,0.1001,0.0913,0.0873,0.094,0.0921,0.0846,0.0845,0.0827,0.0825,0.0824,0.0822,0.0821,0,0.0419,0.0455,0.0585,0.0639,0.0716,0.084,0.0916,0.1025,0.1042,0.1114,0.1089,0.1112,0.1096,0.0961,0.0931,0.0859,0.0833,0.0834,0.0849,0.0851,0.0832,0.0834,0.0835,0.0818,0.0818,0.0818,0.0817,0,0.0386,0.0447,0.0495,0.0614,0.071,0.0788,0.0886,0.0885,0.096,0.1062,0.1003,0.0997,0.0942,0.0884,0.0861,0.0779,0.0862,0.0816,0.0821,0.0835,0.084,0.0823,0.0827,0.0811,0.0812,0.0813,0.0813,0,0.0372,0.0392,0.0468,0.0568,0.0678,0.0716,0.0761,0.078,0.082,0.0894,0.0833,0.0845,0.0883,0.0834,0.0751,0.0738,0.0743,0.0752,0.076,0.0766,0.0745,0.0743,0.0668,0,0,0,0,0,0.0351,0.0358,0.0422,0.0497,0.0604,0.0678,0.0733,0.0753,0.0796,0.0745,0.0809,0.0741,0.0721,0.0696,0.0668,0.0704,0.0726,0.0671,0.0735,0.0779,0.0786,0.0766,0,0,0,0,0,0,0.032,0.0369,0.0379,0.0437,0.0503,0.0588,0.0624,0.0641,0.0601,0.0663,0.0628,0.074,0.0687,0.0741,0.0671,0.0673,0.0708,0.0698,0.0697,0.0775,0.0781,0.0787,0.0768,0,0,0,0,0]},{"header":{"parameterUnit":"m.s-1","parameterCategory":2,"la1":30.2991,"la2":30.254,"lo1":-89.0895,"lo2":-89.0444,"dy":0.0017,"dx":0.0017,"nx":28,"ny":28,"refTime":"2024-07-14T03:00:00:Z","depth":"4","parameterNumber":3,"parameterNumberName":"V-component_of_CURRENTS"},"data":[0,0,0,0,0,0,0,0,0,0,0,0,0,0,0,0,0,0,0,0,0,0,0,0,0,0,0,0,0,0,0,0,0,0,0,0,0,0,0,0,0,0,0,0,0,0,0,0,0,0,0,0,0,0,0,0,0,0,0.0054,0.0053,0,-0.002,-0.0021,-0.0022,-0.0087,-0.0088,-0.0088,-0.0089,-0.0266,-0.027,-0.0274,0,0,0,0,0,0,0,0,0,0,0,0,0,0.0104,0.0103,0.0054,0.0053,0.0052,-0.002,-0.0021,-0.0022,-0.0087,-0.0088,-0.0088,-0.0089,-0.0265,-0.027,-0.0275,0,0,0,0,0,0,0,0,0,0,0,0,0,0.0059,0.0103,0.0054,0.0013,0.0009,-0.002,-0.0021,-0.0023,-0.0087,-0.0088,-0.0088,-0.0089,-0.0263,-0.0269,-0.0275,-0.0298,0,0,-0.0295,-0.0298,0,0,0,0,0,0,0,0,0.0062,0.0057,0.002,0.0016,0.0011,-0.0043,-0.0068,-0.0119,-0.0087,-0.0053,-0.0089,-0.009,-0.0199,-0.0211,-0.0225,-0.0307,-0.0314,-0.0295,-0.0299,-0.0302,-0.0304,0,0,0,0,0,0,0,0.0065,0.006,0.0022,0.0019,0.0014,-0.0013,-0.002,-0.0078,-0.0124,-0.0056,-0.006,-0.0065,-0.0203,-0.0218,-0.0229,-0.0317,-0.0295,-0.0301,-0.0305,-0.0307,-0.0498,-0.0499,0,0,0,0,0,0,0.0082,0.0063,0.0025,0.002,0.0038,-0.0013,-0.0021,-0.0027,-0.0122,-0.0135,-0.0064,-0.0067,-0.0207,-0.0222,-0.0236,-0.0335,-0.0302,-0.0308,-0.0311,-0.0497,-0.0498,-0.0499,0,0,0,0,0,0,0.0083,0.0079,0.0028,0.0042,0.0034,-0.0013,-0.0019,-0.0028,-0.0064,-0.0126,-0.0142,-0.0092,-0.0208,-0.0227,-0.0298,-0.034,-0.0311,-0.0316,-0.0495,-0.0497,-0.0499,-0.049,0,0,0,0,0,0,0.0085,0.008,0.0077,0.0043,0.0034,0.0005,-0.0018,-0.0028,-0.0063,-0.0069,-0.0155,-0.0171,-0.021,-0.0288,-0.0305,-0.0348,-0.0321,-0.0493,-0.0496,-0.0498,-0.0489,-0.0492,-0.0494,0,0,0,0,0,0.0087,0.0087,0.0077,0.0072,0.0033,0.0005,-0.0003,-0.004,-0.0063,-0.0077,-0.0136,-0.017,-0.0316,-0.0294,-0.0313,-0.0359,-0.0492,-0.0495,-0.0498,-0.0488,-0.0491,-0.0494,0,0,0,0,0,0,0.0102,0.008,0.0068,0.006,0.0033,-0.0006,-0.0019,-0.0048,-0.0104,-0.012,-0.0181,-0.0201,-0.0282,-0.0317,-0.0292,-0.0421,-0.0412,-0.0419,-0.0398,-0.0402,-0.0404,-0.0384,-0.0327,0,0,0,0,0,0.0108,0.0103,0.0074,0.0066,0.0055,0.0014,-0.0004,-0.0034,-0.0082,-0.0108,-0.0171,-0.024,-0.0305,-0.0348,-0.0406,-0.0474,-0.0479,-0.0518,-0.052,-0.0522,-0.0518,-0.055,-0.0554,-0.0509,-0.0509,-0.0509,0,0,0.0113,0.0099,0.0095,0.0069,0.0045,0.0023,-0.0001,-0.0034,-0.007,-0.012,-0.0197,-0.0253,-0.0323,-0.0398,-0.0439,-0.0436,-0.0536,-0.0525,-0.0527,-0.0521,-0.0553,-0.0557,-0.0561,-0.0511,-0.051,-0.051,0,0,0.0115,0.0106,0.0099,0.008,0.0045,0.002,0.0008,-0.0045,-0.0085,-0.0156,-0.0204,-0.0272,-0.038,-0.0429,-0.047,-0.052,-0.0545,-0.0556,-0.0561,-0.0592,-0.0595,-0.0599,-0.0597,-0.06,-0.0561,-0.0561,-0.0561,0,0.0117,0.0107,0.0091,0.0076,0.0057,0.0018,-0.0005,-0.0045,-0.0122,-0.0162,-0.0184,-0.0334,-0.0392,-0.0476,-0.0498,-0.0527,-0.0537,-0.0542,-0.0593,-0.0596,-0.06,-0.0598,-0.0601,-0.0561,-0.0561,-0.0561,-0.0561,0,0.0111,0.01,0.0095,0.0065,0.0041,0.0018,-0.0032,-0.0075,-0.0132,-0.0184,-0.0285,-0.0355,-0.0441,-0.0479,-0.051,-0.0576,-0.0571,-0.0586,-0.0578,-0.0603,-0.06,-0.0603,-0.0561,-0.0561,-0.0561,-0.0561,0,0,0.0115,0.0095,0.0091,0.008,0.0032,0.0014,-0.0042,-0.0105,-0.0147,-0.0236,-0.03,-0.0412,-0.0451,-0.0497,-0.0546,-0.058,-0.0611,-0.0597,-0.0598,-0.0581,-0.0661,-0.0615,-0.0615,-0.0639,-0.064,-0.0641,-0.0643,0,0.0109,0.0096,0.0076,0.0049,0.0036,-0.0008,-0.0053,-0.0118,-0.0186,-0.0255,-0.034,-0.0419,-0.0459,-0.05,-0.0544,-0.0602,-0.0623,-0.0607,-0.0651,-0.0651,-0.0597,-0.0619,-0.0644,-0.0645,-0.0646,-0.0647,-0.0647,0,0.0099,0.0095,0.0077,0.0046,0.0035,0.0008,-0.006,-0.0106,-0.0203,-0.026,-0.0345,-0.0409,-0.049,-0.0507,-0.0601,-0.0593,-0.0623,-0.0654,-0.0655,-0.0617,-0.0614,-0.0621,-0.0654,-0.0653,-0.0653,-0.0652,-0.0652,0,0.0111,0.0089,0.0081,0.0071,0.0031,0.0003,-0.0032,-0.0117,-0.0151,-0.0259,-0.0289,-0.0404,-0.0449,-0.0522,-0.0586,-0.0604,-0.0659,-0.069,-0.0668,-0.0664,-0.0706,-0.0703,-0.0733,-0.0733,-0.0733,-0.0733,-0.0733,0,0.0109,0.0101,0.009,0.0087,0.0069,0.0021,-0.0016,-0.0072,-0.0139,-0.0167,-0.0283,-0.0317,-0.0456,-0.0506,-0.0573,-0.062,-0.0648,-0.0664,-0.0668,-0.0701,-0.0698,-0.0707,-0.0704,-0.0733,-0.0733,-0.0733,-0.0733,0,0.0115,0.0111,0.0108,0.0084,0.0077,0.006,0.0023,0.0001,-0.007,-0.0102,-0.0129,-0.0252,-0.0334,-0.0431,-0.0538,-0.0582,-0.0642,-0.064,-0.0635,-0.0639,-0.063,-0.0627,-0.0642,-0.0641,-0.0639,-0.0638,-0.0637,0,0.0116,0.0119,0.0125,0.0133,0.0122,0.0103,0.0094,0.0034,0.0024,-0.0051,-0.0055,-0.015,-0.0231,-0.0343,-0.0462,-0.0569,-0.0582,-0.0602,-0.0657,-0.0622,-0.0624,-0.0623,-0.0621,-0.0635,-0.0635,-0.0635,-0.0634,0,0.0119,0.0128,0.0135,0.0166,0.0168,0.0174,0.016,0.0159,0.0103,0.007,0.0007,-0.0091,-0.0176,-0.032,-0.0386,-0.0469,-0.0599,-0.059,-0.0595,-0.0647,-0.0614,-0.0617,-0.0617,-0.063,-0.0631,-0.0631,-0.0631,0,0.0127,0.0138,0.0164,0.0186,0.0216,0.0226,0.0205,0.0193,0.0173,0.0103,0.0092,-0.0041,-0.0124,-0.0263,-0.0329,-0.0406,-0.045,-0.0483,-0.0494,-0.05,-0.0468,-0.0406,-0.0358,0,0,0,0,0,0.0138,0.0154,0.0178,0.0202,0.0246,0.0262,0.0253,0.0231,0.0203,0.0179,0.0132,0.0052,-0.0103,-0.0192,-0.0261,-0.0319,-0.0463,-0.0402,-0.0506,-0.0607,-0.0611,-0.0595,0,0,0,0,0,0,0.0136,0.0171,0.0178,0.023,0.0263,0.0295,0.0293,0.0261,0.0237,0.0197,0.0111,0.0065,-0.0091,-0.0041,-0.0247,-0.0277,-0.0348,-0.0477,-0.0478,-0.0604,-0.0608,-0.0612,-0.0597,0,0,0,0,0]}]]